Wind_Speed
28 29 30 31 32 32 33 34 35 37 37 36 35 35 36 38 40 41 42 43 45 47 48 50 51 50 49 48 47 47 47 46 45 44 44 43 41 40 38 36 34 32
26 28 29 31 32 33 34 34 34 36 36 36 36 34 35 36 39 41 41 42 43 44 46 49 50 51 50 49 48 48 48 47 47 46 45 45 43 42 40 38 36 34
25 26 27 29 31 32 34 35 35 36 36 36 36 35 35 36 38 40 41 41 42 42 44 46 49 50 50 49 48 48 48 48 48 48 47 46 45 44 43 41 39 37
25 26 27 28 29 30 32 34 35 36 37 38 37 36 36 36 37 39 40 41 42 42 42 43 46 48 49 50 49 49 49 49 49 49 49 48 47 46 45 43 41 39
22 25 28 29 29 29 31 32 33 34 36 38 38 38 39 38 38 39 39 40 41 41 41 41 43 46 48 50 50 50 50 50 51 51 51 50 50 48 47 45 44 42
20 22 25 28 30 31 32 32 33 34 35 36 37 39 40 41 41 41 40 40 40 40 41 41 42 44 47 50 51 51 51 52 52 52 53 52 51 50 48 47 46 45
25 23 23 24 26 29 31 32 33 35 36 37 37 38 40 41 43 43 43 42 41 41 41 41 41 43 45 48 51 52 53 53 54 54 54 54 53 52 51 49 49 48
29 28 26 25 25 26 28 30 31 34 36 38 39 40 40 41 42 43 44 44 44 44 43 43 42 43 44 46 50 52 54 55 56 56 56 56 55 55 53 52 51 50
32 30 29 28 27 28 28 28 28 30 33 37 40 42 43 43 43 44 44 45 46 47 47 46 45 44 44 46 48 51 54 56 57 58 58 58 58 57 56 55 54 53
33 33 32 31 29 29 28 28 27 28 30 33 37 40 43 44 45 46 46 47 47 48 49 49 48 46 45 46 48 51 54 56 58 58 59 59 58 57 57 57 56 55
34 35 35 34 32 30 28 27 27 27 28 31 33 37 40 42 44 46 47 49 49 49 49 50 50 50 49 48 49 50 53 55 58 59 59 59 59 58 58 58 58 57
34 36 37 37 36 33 30 28 27 27 27 29 31 34 37 40 43 45 47 49 50 50 50 51 51 51 52 51 50 51 52 55 57 59 59 59 59 59 59 59 59 58
34 35 36 38 38 37 34 30 29 28 28 28 30 32 35 38 42 44 46 48 49 50 51 52 52 52 53 53 53 53 54 55 57 58 59 60 60 60 60 60 60 60
33 34 35 35 36 37 36 34 31 29 29 29 30 31 34 36 39 42 45 47 48 49 51 52 54 54 55 55 55 55 56 57 58 59 59 59 60 61 61 62 62 62
32 32 33 34 35 36 36 36 35 32 30 30 31 32 33 34 37 40 43 46 48 49 50 52 55 56 57 57 57 57 57 57 58 60 60 60 60 61 62 63 64 63
35 33 33 34 35 35 36 36 36 35 33 31 31 32 33 33 34 37 41 44 47 49 50 53 55 57 58 58 58 58 57 56 57 59 61 62 62 63 64 65 65 64
38 37 36 35 35 35 36 36 36 36 36 34 32 31 33 33 33 35 39 42 45 48 50 53 55 57 57 57 58 58 58 58 57 57 60 63 64 65 65 65 65 65
39 39 39 37 36 36 36 37 37 37 36 36 35 33 32 32 33 35 36 39 43 46 49 52 55 56 56 57 58 58 58 58 58 58 59 61 64 66 66 65 65 66
41 41 41 40 39 38 38 38 38 37 37 36 36 36 34 32 33 33 34 37 41 45 48 51 53 55 56 56 57 57 57 58 58 59 59 60 62 65 66 67 66 66
42 43 43 42 41 41 40 40 39 39 38 37 36 35 35 34 33 32 33 34 38 43 47 50 52 54 55 56 56 56 56 56 57 58 59 60 60 63 65 66 66 66
43 43 44 44 44 43 43 42 41 40 39 38 37 36 34 34 34 33 33 33 35 39 44 48 51 53 53 55 55 55 55 55 55 56 59 60 60 62 63 64 64 64
43 45 45 46 46 46 46 45 44 43 41 40 39 37 35 34 33 32 32 32 32 35 41 46 49 51 52 53 54 54 53 53 54 55 58 60 61 62 63 62 61 61
44 46 47 47 47 47 47 47 46 45 43 41 40 39 37 35 33 32 31 31 31 33 38 42 46 48 50 51 52 53 53 52 53 55 57 60 61 62 63 62 61 59
46 46 47 49 49 49 49 48 48 48 46 43 42 42 40 37 35 34 32 31 31 32 34 38 42 44 47 50 51 51 52 52 52 54 57 60 61 62 62 62 60 58
47 47 48 49 51 51 51 51 50 49 48 46 44 43 42 40 38 36 34 32 31 32 33 35 38 41 44 47 49 49 50 50 51 53 57 59 60 61 62 60 59 57
47 47 49 50 52 53 53 53 53 52 50 49 47 45 44 42 40 38 37 34 31 31 32 33 36 39 41 44 47 47 48 48 50 53 56 57 58 59 60 59 58 56
Wind_Direction
282 277 273 270 268 265 263 261 260 259 258 255 252 247 243 241 239 239 239 238 237 235 232 230 229 229 229 228 227 226 225 225 226 226 227 227 228 229 230 232 234 235
291 285 280 276 273 270 267 265 264 263 262 261 259 255 249 245 242 240 240 240 239 237 235 233 231 231 230 229 228 226 225 225 225 226 226 227 227 228 230 231 232 233
296 291 287 283 280 276 272 269 267 266 265 263 261 259 255 250 247 244 243 242 241 240 238 236 234 233 232 231 230 228 228 227 226 226 226 227 228 228 229 230 230 232
300 295 290 287 285 282 278 275 271 269 267 265 263 262 259 255 252 249 246 245 243 242 240 239 237 235 234 233 231 230 229 229 228 228 227 227 227 228 228 229 229 231
304 297 293 289 286 284 281 279 277 273 270 268 266 264 262 259 256 253 250 247 245 244 243 242 240 237 235 234 232 231 230 229 228 228 227 227 227 227 227 228 229 230
318 305 296 291 287 285 283 282 281 278 274 270 267 265 264 262 259 257 254 251 248 246 245 243 242 239 236 234 233 232 231 230 229 228 227 227 227 227 227 228 229 230
334 322 308 298 289 284 282 281 281 280 278 275 271 267 265 263 261 260 258 256 253 251 248 246 244 241 239 236 234 232 231 230 230 229 228 227 227 227 228 228 229 230
340 333 324 312 301 292 285 281 278 278 278 277 275 272 268 265 262 261 260 259 257 255 253 250 247 245 242 239 237 234 232 230 230 229 228 227 227 227 228 228 229 230
343 338 332 323 314 307 300 293 287 281 276 274 273 273 271 268 265 262 260 259 258 257 255 252 250 248 246 243 240 238 235 232 231 230 228 228 227 227 228 228 228 229
344 340 336 331 323 315 308 303 299 292 285 279 274 272 269 268 267 265 262 259 257 256 255 253 251 249 248 246 244 241 238 236 233 231 230 229 229 229 229 229 229 229
345 344 341 337 332 324 315 307 300 297 294 289 283 278 273 269 266 264 263 262 259 258 257 256 254 251 248 247 246 244 242 239 236 234 232 231 230 230 230 231 231 231
346 347 347 345 340 333 325 314 303 296 293 290 289 287 282 277 271 266 264 264 264 263 261 259 256 253 251 248 247 245 243 241 238 236 234 233 231 231 231 232 232 232
346 346 347 348 346 343 337 326 313 301 291 288 288 287 285 283 279 274 271 268 267 265 263 261 258 255 253 251 248 246 244 242 239 237 235 233 233 232 232 232 232 232
345 343 343 344 345 345 344 339 328 314 299 290 284 282 283 285 284 281 278 274 271 267 263 261 258 256 254 252 248 245 244 243 241 238 235 233 233 233 233 233 233 232
341 340 339 339 339 340 342 343 340 331 317 301 288 281 280 282 284 284 281 277 273 270 265 260 258 257 256 253 250 247 244 243 242 241 238 235 233 232 232 232 232 232
336 335 335 335 336 336 337 339 340 340 334 321 305 290 282 280 281 281 280 278 274 271 267 262 259 258 257 255 253 250 247 244 242 242 240 237 235 233 232 231 231 231
334 333 332 332 333 333 333 333 335 337 339 336 326 309 294 285 282 278 277 278 276 272 268 265 262 261 259 257 255 252 249 245 243 242 241 239 237 234 233 232 231 230
332 331 330 330 330 330 329 330 330 331 334 336 335 328 312 294 284 280 280 279 276 272 269 266 265 263 261 258 256 253 250 247 244 242 241 241 239 236 234 233 232 230
331 329 328 329 329 329 328 327 327 327 328 331 332 333 327 311 294 285 283 281 276 273 270 268 266 264 261 259 257 254 251 247 245 244 242 242 242 240 236 234 232 230
329 328 327 327 327 328 327 326 325 324 325 326 327 328 330 325 311 295 285 282 279 275 272 270 267 265 262 259 257 254 252 249 246 245 244 243 243 243 241 238 235 232
328 328 327 327 327 327 327 327 326 323 322 323 323 323 326 327 322 308 293 285 281 277 273 270 268 265 261 259 257 255 252 250 247 245 245 244 244 244 243 242 239 237
326 327 326 327 327 326 326 326 325 323 322 321 320 319 320 322 323 318 305 292 284 280 275 272 269 265 262 259 257 255 252 249 247 245 245 244 243 243 242 241 240 239
323 323 324 324 324 325 325 324 324 322 321 320 318 316 316 318 319 318 311 299 289 281 277 275 271 267 263 260 257 254 251 248 246 245 244 243 242 242 241 241 239 238
319 319 320 320 320 321 321 322 322 321 319 318 316 313 313 314 314 314 312 305 295 286 280 277 274 270 265 261 257 254 251 248 245 244 243 242 241 241 240 239 238 237
314 316 316 316 315 316 317 317 317 318 317 316 313 311 310 310 310 310 310 308 301 292 284 279 276 272 266 260 257 254 251 249 245 242 242 241 240 239 239 238 237 236
310 311 312 312 311 312 312 313 313 313 314 314 312 309 307 306 306 306 305 306 304 297 289 281 276 273 268 262 257 254 252 249 245 242 241 240 238 237 237 236 235 234
Height
1431 1431 1430 1428 1427 1427 1426 1427 1428 1430 1431 1432 1433 1435 1437 1440 1442 1444 1446 1448 1450 1452 1454 1456 1459 1461 1463 1465 1468 1470 1473 1475 1478 1480 1482 1484 1486 1488 1490 1492 1494 1496
1431 1431 1431 1429 1428 1427 1426 1426 1427 1428 1430 1432 1433 1434 1436 1437 1438 1440 1442 1444 1446 1448 1451 1453 1455 1457 1459 1461 1463 1465 1468 1470 1472 1474 1476 1479 1481 1483 1485 1487 1489 1491
1429 1430 1429 1428 1427 1426 1426 1426 1426 1427 1428 1430 1431 1433 1434 1435 1436 1437 1438 1440 1442 1444 1446 1448 1450 1453 1455 1457 1460 1461 1463 1465 1467 1469 1471 1473 1475 1477 1480 1482 1484 1486
1426 1427 1427 1426 1425 1424 1424 1423 1424 1425 1426 1427 1429 1431 1432 1433 1434 1434 1435 1436 1438 1439 1441 1443 1446 1448 1451 1453 1455 1457 1458 1460 1462 1464 1466 1467 1469 1471 1474 1476 1478 1480
1424 1425 1425 1424 1423 1422 1421 1420 1420 1422 1422 1424 1426 1428 1429 1430 1431 1432 1432 1433 1434 1435 1437 1438 1441 1443 1445 1447 1449 1451 1453 1455 1457 1458 1460 1461 1463 1465 1468 1470 1472 1474
1422 1422 1422 1421 1420 1418 1417 1416 1417 1418 1418 1420 1421 1423 1425 1426 1428 1429 1430 1430 1431 1432 1432 1434 1435 1437 1439 1441 1443 1445 1447 1449 1451 1453 1454 1456 1458 1460 1463 1465 1466 1468
1420 1420 1419 1418 1417 1415 1413 1412 1413 1414 1415 1416 1417 1418 1420 1421 1423 1425 1426 1428 1428 1429 1429 1430 1431 1432 1434 1436 1437 1439 1441 1443 1445 1447 1448 1450 1453 1455 1457 1459 1461 1462
1418 1417 1416 1415 1414 1412 1410 1410 1410 1411 1412 1413 1413 1414 1415 1416 1418 1420 1422 1424 1425 1425 1426 1426 1427 1428 1430 1431 1432 1433 1435 1436 1438 1440 1442 1444 1446 1448 1450 1452 1454 1456
1416 1415 1413 1412 1410 1408 1407 1406 1406 1407 1408 1409 1410 1411 1412 1412 1413 1414 1416 1417 1419 1420 1421 1422 1423 1424 1425 1426 1427 1428 1429 1430 1431 1433 1435 1436 1438 1440 1443 1445 1448 1450
1415 1413 1411 1409 1406 1404 1402 1401 1401 1401 1402 1403 1405 1406 1408 1408 1409 1410 1410 1411 1411 1413 1414 1417 1418 1420 1421 1421 1422 1424 1425 1426 1426 1427 1429 1430 1432 1434 1437 1439 1441 1443
1414 1412 1410 1407 1404 1402 1399 1398 1396 1396 1396 1397 1398 1399 1401 1403 1405 1405 1405 1404 1404 1405 1407 1410 1412 1414 1416 1416 1417 1419 1420 1421 1422 1423 1424 1425 1427 1429 1430 1432 1434 1436
1412 1410 1408 1406 1403 1400 1398 1395 1393 1392 1392 1391 1392 1393 1394 1396 1397 1398 1399 1399 1399 1400 1401 1403 1406 1408 1410 1411 1412 1414 1415 1416 1417 1418 1419 1420 1422 1423 1424 1425 1427 1430
1412 1410 1408 1405 1402 1399 1397 1394 1392 1390 1389 1388 1388 1388 1388 1389 1390 1391 1393 1394 1395 1395 1396 1397 1399 1401 1403 1404 1407 1408 1409 1410 1411 1411 1413 1415 1416 1417 1418 1419 1421 1423
1411 1410 1407 1405 1402 1399 1396 1393 1391 1389 1387 1385 1384 1383 1383 1384 1385 1386 1387 1388 1388 1389 1390 1392 1393 1393 1395 1396 1398 1401 1403 1405 1405 1406 1407 1408 1409 1410 1412 1413 1415 1417
1410 1408 1406 1404 1401 1398 1395 1393 1390 1388 1385 1383 1381 1380 1379 1380 1380 1381 1381 1381 1381 1382 1384 1385 1386 1386 1387 1388 1390 1392 1395 1398 1400 1401 1402 1403 1403 1403 1405 1406 1408 1411
1408 1406 1404 1402 1399 1396 1394 1392 1389 1386 1383 1380 1378 1376 1376 1375 1376 1376 1375 1375 1375 1376 1378 1378 1378 1379 1380 1383 1385 1387 1389 1391 1393 1395 1397 1398 1398 1397 1397 1398 1401 1404
1405 1403 1401 1399 1397 1395 1393 1391 1388 1385 1381 1378 1375 1373 1371 1371 1370 1370 1369 1370 1371 1371 1372 1371 1371 1372 1374 1377 1379 1381 1384 1385 1387 1388 1390 1391 1392 1392 1391 1392 1395 1398
1402 1400 1398 1396 1395 1393 1391 1388 1386 1382 1379 1375 1372 1370 1368 1366 1365 1364 1364 1365 1366 1366 1365 1365 1365 1366 1369 1371 1372 1375 1378 1380 1382 1383 1383 1383 1385 1386 1387 1388 1389 1392
1400 1397 1395 1394 1392 1390 1388 1385 1382 1379 1376 1373 1370 1368 1366 1363 1361 1360 1360 1360 1360 1360 1359 1359 1360 1361 1363 1364 1366 1368 1371 1374 1376 1377 1378 1378 1378 1380 1382 1383 1384 1386
1398 1396 1393 1391 1389 1387 1384 1382 1379 1376 1373 1371 1368 1365 1363 1361 1358 1356 1355 1355 1355 1354 1354 1354 1354 1355 1357 1359 1360 1362 1364 1367 1371 1372 1372 1372 1373 1374 1375 1377 1379 1380
1395 1393 1390 1387 1384 1382 1379 1377 1376 1373 1371 1368 1365 1363 1361 1358 1355 1353 1351 1350 1350 1350 1349 1348 1348 1350 1352 1353 1354 1356 1358 1361 1364 1366 1366 1366 1367 1367 1369 1371 1374 1376
1392 1388 1385 1382 1379 1376 1374 1372 1371 1369 1368 1366 1363 1360 1358 1355 1352 1350 1347 1345 1345 1345 1344 1342 1343 1345 1347 1348 1349 1351 1353 1355 1357 1359 1360 1359 1359 1360 1362 1365 1367 1370
1387 1384 1380 1377 1375 1372 1370 1368 1367 1366 1364 1363 1360 1356 1354 1352 1349 1346 1343 1341 1340 1340 1339 1338 1338 1340 1341 1342 1344 1346 1348 1349 1351 1352 1353 1353 1352 1353 1355 1358 1360 1363
1383 1380 1376 1373 1370 1368 1366 1364 1363 1361 1360 1359 1356 1353 1350 1348 1345 1341 1339 1337 1335 1334 1334 1333 1333 1335 1337 1337 1339 1341 1343 1344 1345 1346 1346 1346 1346 1347 1349 1351 1354 1357
1378 1375 1373 1370 1367 1365 1363 1361 1359 1357 1356 1354 1352 1349 1345 1343 1340 1337 1334 1332 1331 1329 1329 1328 1328 1329 1331 1332 1334 1336 1338 1339 1340 1339 1339 1339 1340 1341 1343 1345 1348 1351
1373 1371 1368 1365 1363 1360 1358 1357 1355 1353 1351 1349 1347 1344 1341 1338 1336 1333 1330 1327 1326 1325 1324 1324 1323 1324 1325 1327 1329 1330 1332 1334 1334 1333 1332 1334 1335 1336 1338 1340 1342 1345